Time,TemperatureF,DewpointF,PressureIn,WindDirection,WindDirectionDegrees,WindSpeedMPH,WindSpeedGustMPH,Humidity,HourlyPrecipIn,Conditions,Clouds,dailyrainin,SoftwareType,DateUTC
2013-07-12 00:01:00,67.0,61.0,30.01,SE,134,0.0,2.0,80,0.00,,,0.00,,2013-07-12 04:01:00,
2013-07-12 00:11:00,66.0,60.0,30.01,NE,54,0.0,1.0,81,0.00,,,0.00,,2013-07-12 04:11:00,
2013-07-12 00:22:00,66.0,60.0,30.01,NE,54,0.0,1.0,82,0.00,,,0.00,,2013-07-12 04:22:00,
2013-07-12 00:32:00,66.0,60.0,30.01,NE,54,0.0,1.0,82,0.00,,,0.00,,2013-07-12 04:32:00,
2013-07-12 00:53:00,66.0,61.0,30.01,NE,54,0.0,0.0,84,0.00,,,0.00,,2013-07-12 04:53:00,
2013-07-12 01:02:00,65.0,60.0,30.01,NE,54,0.0,0.0,85,0.00,,,0.00,,2013-07-12 05:02:00,
2013-07-12 01:12:00,65.0,60.0,30.01,ENE,61,0.0,1.0,85,0.00,,,0.00,,2013-07-12 05:12:00,
2013-07-12 01:22:00,65.0,60.0,30.01,ENE,61,0.0,1.0,85,0.00,,,0.00,,2013-07-12 05:22:00,
2013-07-12 01:32:00,65.0,61.0,30.01,ENE,61,0.0,0.0,86,0.00,,,0.00,,2013-07-12 05:32:00,
2013-07-12 01:53:00,65.0,60.0,30.00,ENE,61,0.0,0.0,85,0.00,,,0.00,,2013-07-12 05:53:00,
2013-07-12 02:01:00,64.0,60.0,30.00,ENE,61,0.0,0.0,86,0.00,,,0.00,,2013-07-12 06:01:00,
2013-07-12 02:11:00,64.0,60.0,30.00,ENE,61,0.0,0.0,86,0.00,,,0.00,,2013-07-12 06:11:00,
2013-07-12 02:22:00,64.0,60.0,30.00,ENE,61,0.0,1.0,87,0.00,,,0.00,,2013-07-12 06:22:00,
2013-07-12 02:42:00,64.0,60.0,30.01,ENE,61,0.0,0.0,87,0.00,,,0.00,,2013-07-12 06:42:00,
2013-07-12 02:52:00,64.0,60.0,30.00,ENE,61,0.0,1.0,87,0.00,,,0.00,,2013-07-12 06:52:00,
2013-07-12 03:02:00,63.0,59.0,30.00,ENE,61,0.0,0.0,87,0.00,,,0.00,,2013-07-12 07:02:00,
2013-07-12 03:12:00,63.0,59.0,30.00,ENE,61,0.0,1.0,87,0.00,,,0.00,,2013-07-12 07:12:00,
2013-07-12 03:33:00,63.0,60.0,30.00,ENE,61,0.0,0.0,89,0.00,,,0.00,,2013-07-12 07:33:00,
2013-07-12 03:43:00,63.0,60.0,30.00,ENE,61,0.0,1.0,89,0.00,,,0.00,,2013-07-12 07:43:00,
2013-07-12 03:52:00,62.0,58.0,29.99,ENE,61,0.0,1.0,88,0.00,,,0.00,,2013-07-12 07:52:00,
2013-07-12 04:02:00,62.0,58.0,29.99,ENE,61,0.0,0.0,88,0.00,,,0.00,,2013-07-12 08:02:00,
2013-07-12 04:22:00,62.0,58.0,30.00,ENE,61,0.0,1.0,88,0.00,,,0.00,,2013-07-12 08:22:00,
2013-07-12 04:32:00,61.0,58.0,30.00,ENE,61,0.0,1.0,89,0.00,,,0.00,,2013-07-12 08:32:00,
2013-07-12 04:42:00,61.0,58.0,30.00,ENE,65,0.0,1.0,89,0.00,,,0.00,,2013-07-12 08:42:00,
2013-07-12 04:53:00,61.0,58.0,30.00,ENE,65,0.0,1.0,89,0.00,,,0.00,,2013-07-12 08:53:00,
2013-07-12 05:02:00,61.0,58.0,30.01,ENE,65,0.0,1.0,89,0.00,,,0.00,,2013-07-12 09:02:00,
2013-07-12 05:13:00,61.0,58.0,30.00,ENE,65,0.0,3.0,89,0.00,,,0.00,,2013-07-12 09:13:00,
2013-07-12 05:22:00,61.0,58.0,30.01,ENE,65,0.0,3.0,90,0.00,,,0.00,,2013-07-12 09:22:00,
2013-07-12 05:32:00,60.0,57.0,30.01,ENE,65,0.0,2.0,91,0.00,,,0.00,,2013-07-12 09:32:00,
2013-07-12 05:43:00,60.0,57.0,30.01,ENE,65,0.0,1.0,91,0.00,,,0.00,,2013-07-12 09:43:00,
2013-07-12 05:52:00,59.0,56.0,30.01,NW,313,2.0,4.0,91,0.00,,,0.00,,2013-07-12 09:52:00,
2013-07-12 06:01:00,59.0,57.0,30.01,NNW,331,3.0,5.0,93,0.00,,,0.00,,2013-07-12 10:01:00,
2013-07-12 06:33:00,60.0,58.0,30.01,NNW,344,0.0,1.0,94,0.00,,,0.00,,2013-07-12 10:33:00,
2013-07-12 06:42:00,60.0,58.0,30.02,NNW,344,0.0,1.0,94,0.00,,,0.00,,2013-07-12 10:42:00,
2013-07-12 06:52:00,60.0,58.0,30.02,NNW,344,0.0,2.0,94,0.00,,,0.00,,2013-07-12 10:52:00,
2013-07-12 07:02:00,60.0,58.0,30.03,NNW,344,0.0,2.0,94,0.00,,,0.00,,2013-07-12 11:02:00,
2013-07-12 07:12:00,60.0,58.0,30.03,NNW,344,0.0,2.0,94,0.00,,,0.00,,2013-07-12 11:12:00,
2013-07-12 07:22:00,60.0,58.0,30.03,NNW,344,0.0,2.0,94,0.00,,,0.00,,2013-07-12 11:22:00,
2013-07-12 07:32:00,60.0,58.0,30.03,NNW,344,0.0,1.0,94,0.00,,,0.00,,2013-07-12 11:32:00,
2013-07-12 07:43:00,60.0,58.0,30.03,NNW,344,0.0,4.0,94,0.00,,,0.00,,2013-07-12 11:43:00,
2013-07-12 07:53:00,60.0,58.0,30.04,NW,315,0.0,4.0,94,0.00,,,0.00,,2013-07-12 11:53:00,
2013-07-12 08:02:00,60.0,58.0,30.04,NW,315,0.0,2.0,94,0.00,,,0.00,,2013-07-12 12:02:00,
2013-07-12 08:11:00,61.0,59.0,30.05,NW,315,0.0,1.0,94,0.00,,,0.00,,2013-07-12 12:11:00,
2013-07-12 08:22:00,61.0,59.0,30.05,NW,315,1.0,2.0,94,0.00,,,0.00,,2013-07-12 12:22:00,
2013-07-12 08:32:00,61.0,59.0,30.05,NW,315,0.0,4.0,93,0.00,,,0.00,,2013-07-12 12:32:00,
2013-07-12 08:43:00,61.0,59.0,30.06,NW,315,0.0,1.0,94,0.00,,,0.00,,2013-07-12 12:43:00,
2013-07-12 08:52:00,62.0,60.0,30.06,NW,315,0.0,0.0,93,0.00,,,0.00,,2013-07-12 12:52:00,
2013-07-12 09:01:00,62.0,60.0,30.06,NW,315,0.0,0.0,93,0.00,,,0.00,,2013-07-12 13:01:00,
2013-07-12 09:32:00,64.0,60.0,30.06,NE,40,0.0,4.0,88,0.00,,,0.00,,2013-07-12 13:32:00,
2013-07-12 10:02:00,66.0,61.0,30.07,NNE,28,0.0,4.0,85,0.00,,,0.00,,2013-07-12 14:02:00,
2013-07-12 10:12:00,66.0,61.0,30.07,NNE,28,0.0,4.0,85,0.00,,,0.00,,2013-07-12 14:12:00,
2013-07-12 10:44:00,67.0,61.0,30.08,NE,53,2.0,9.0,81,0.00,,,0.00,,2013-07-12 14:44:00,
2013-07-12 10:53:00,67.0,62.0,30.08,NE,44,0.0,9.0,83,0.00,,,0.00,,2013-07-12 14:53:00,
2013-07-12 11:33:00,68.0,63.0,30.07,NNE,17,0.0,4.0,83,0.00,,,0.00,,2013-07-12 15:33:00,
2013-07-12 11:53:00,70.0,64.0,30.07,SE,127,0.0,2.0,80,0.00,,,0.00,,2013-07-12 15:53:00,
2013-07-12 12:02:00,71.0,63.0,30.07,ENE,63,0.0,5.0,75,0.00,,,0.00,,2013-07-12 16:02:00,
2013-07-12 12:11:00,71.0,63.0,30.07,ENE,63,0.0,5.0,77,0.00,,,0.00,,2013-07-12 16:11:00,
2013-07-12 12:43:00,72.0,64.0,30.07,NNE,22,0.0,5.0,75,0.00,,,0.00,,2013-07-12 16:43:00,
2013-07-12 12:58:00,72.0,64.0,30.07,NNE,28,1.0,6.0,75,0.00,,,0.00,,2013-07-12 16:58:00,
2013-07-12 13:07:00,71.0,64.0,30.07,NNW,338,4.0,8.0,78,0.00,,,0.00,,2013-07-12 17:07:00,
2013-07-12 13:39:00,70.0,64.0,30.06,NNW,340,4.0,10.0,82,0.00,,,0.00,,2013-07-12 17:39:00,
2013-07-12 13:45:00,70.0,64.0,30.06,WNW,300,0.0,6.0,82,0.00,,,0.00,,2013-07-12 17:45:00,
2013-07-12 13:54:00,70.0,64.0,30.06,NNW,337,6.0,9.0,82,0.00,,,0.00,,2013-07-12 17:54:00,
2013-07-12 14:07:00,69.0,63.0,30.06,NW,317,5.0,7.0,82,0.00,,,0.00,,2013-07-12 18:07:00,
2013-07-12 14:34:00,68.0,62.0,30.08,North,360,5.0,17.0,81,0.01,,,0.01,,2013-07-12 18:34:00,
2013-07-12 15:05:00,66.0,63.0,30.07,East,86,0.0,2.0,90,0.05,,,0.05,,2013-07-12 19:05:00,
2013-07-12 15:15:00,66.0,63.0,30.07,NNE,23,4.0,6.0,89,0.05,,,0.05,,2013-07-12 19:15:00,
2013-07-12 15:46:00,67.0,63.0,30.08,ENE,57,0.0,4.0,88,0.00,,,0.05,,2013-07-12 19:46:00,
2013-07-12 15:57:00,67.0,63.0,30.08,ENE,57,0.0,4.0,87,0.00,,,0.05,,2013-07-12 19:57:00,
2013-07-12 16:34:00,66.0,61.0,30.07,East,96,0.0,4.0,84,0.00,,,0.05,,2013-07-12 20:34:00,
2013-07-12 16:54:00,66.0,61.0,30.07,East,96,0.0,0.0,85,0.00,,,0.05,,2013-07-12 20:54:00,
2013-07-12 17:35:00,65.0,62.0,30.08,North,360,1.0,7.0,91,0.00,,,0.05,,2013-07-12 21:35:00,
2013-07-12 17:56:00,65.0,63.0,30.09,North,350,3.0,6.0,92,0.00,,,0.05,,2013-07-12 21:56:00,
2013-07-12 18:45:00,65.0,63.0,30.09,NW,313,4.0,8.0,93,0.00,,,0.05,,2013-07-12 22:45:00,
2013-07-12 19:05:00,65.0,63.0,30.10,North,5,2.0,7.0,93,0.01,,,0.06,,2013-07-12 23:05:00,
2013-07-12 19:14:00,65.0,63.0,30.10,NNW,348,1.0,5.0,93,0.01,,,0.06,,2013-07-12 23:14:00,
2013-07-12 19:26:00,65.0,63.0,30.10,NNW,347,0.0,5.0,92,0.02,,,0.07,,2013-07-12 23:26:00,
2013-07-12 19:35:00,65.0,63.0,30.10,NNW,347,0.0,4.0,93,0.03,,,0.08,,2013-07-12 23:35:00,
2013-07-12 19:45:00,64.0,62.0,30.10,NNW,347,0.0,4.0,93,0.04,,,0.09,,2013-07-12 23:45:00,
2013-07-12 20:08:00,64.0,62.0,30.10,NNE,33,0.0,4.0,93,0.10,,,0.16,,2013-07-13 00:08:00,
2013-07-12 20:33:00,64.0,62.0,30.10,ENE,67,1.0,2.0,93,0.19,,,0.27,,2013-07-13 00:33:00,
2013-07-12 20:47:00,63.0,61.0,30.11,ENE,67,0.0,1.0,93,0.22,,,0.31,,2013-07-13 00:47:00,
2013-07-12 20:55:00,63.0,61.0,30.11,ENE,67,0.0,0.0,93,0.24,,,0.34,,2013-07-13 00:55:00,
2013-07-12 21:05:00,63.0,61.0,30.11,ENE,67,0.0,1.0,93,0.25,,,0.36,,2013-07-13 01:05:00,
2013-07-12 21:24:00,63.0,61.0,30.11,East,89,0.0,2.0,94,0.27,,,0.45,,2013-07-13 01:24:00,
2013-07-12 21:48:00,63.0,61.0,30.11,East,88,0.0,1.0,94,0.32,,,0.56,,2013-07-13 01:48:00,
2013-07-12 21:56:00,62.0,60.0,30.11,ESE,109,0.0,1.0,94,0.24,,,0.60,,2013-07-13 01:56:00,
2013-07-12 22:07:00,62.0,60.0,30.11,ESE,109,0.0,1.0,94,0.20,,,0.62,,2013-07-13 02:07:00,
2013-07-12 22:15:00,62.0,60.0,30.11,ESE,117,0.0,1.0,94,0.19,,,0.64,,2013-07-13 02:15:00,
2013-07-12 22:25:00,62.0,60.0,30.11,ESE,117,0.0,1.0,94,0.19,,,0.66,,2013-07-13 02:25:00,
2013-07-12 22:46:00,62.0,60.0,30.12,East,101,0.0,2.0,94,0.21,,,0.79,,2013-07-13 02:46:00,
2013-07-12 23:06:00,62.0,60.0,30.13,East,101,0.0,1.0,94,0.17,,,0.79,,2013-07-13 03:06:00,